Hourly Data Report for October 06, 2015

All times are specified in Local Standard Time (LST). Add 1 hour to adjust for Daylight Saving Time where and when it is observed.

RESOLUTE BAY A
NUNAVUT

74°43'01.000" N
94°58'10.000" W
67.70 m
2403498
71924
YRB

Download Data

Hourly Data (October 2015)
Hourly Data Report for October 6, 2015
Temp Definition
°C
Dew Point Temp Definition
°C
Rel Hum Definition
%
Wind Dir Definition
10's deg

Wind Spd Definition
km/h
Visibility Definition
km
Stn Press Definition
kPa
Hmdx Definition


Wind Chill Definition


Weather Definition


TIME
00:00 Legend Double Dagger -7.7 -10.4 81 24 14 24.1 99.21   -14 Mostly Cloudy
01:00 Legend Double Dagger -8.2 -10.8 82 36 3 24.1 99.22   -10 LegendNANA
02:00 Legend Double Dagger -6.3 -9.5 78 10 8 24.1 99.23   -10 Snow
03:00 Legend Double Dagger -6.4 -8.5 85 8 12 16.1 99.22   -12 Snow
04:00 Legend Double Dagger -6.1 -8.1 86 11 16 16.1 99.20   -12 Snow
05:00 Legend Double Dagger -6.1 -7.6 89 10 21 16.1 99.18   -13 Snow
06:00 Legend Double Dagger -5.8 -7.2 90 12 23 16.1 99.19   -13 Snow
07:00 Legend Double Dagger -6.3 -7.5 91 12 21 16.1 99.17   -13 Snow
08:00 Legend Double Dagger -5.9 -7.4 89 11 22 12.9 99.14   -13 LegendNANA
09:00 Legend Double Dagger -5.9 -7.7 87 11 28 16.1 99.09   -14 Cloudy
10:00 Legend Double Dagger -5.4 -7.2 87 10 23 24.1 99.07   -13 LegendNANA
11:00 Legend Double Dagger -6.0 -8.3 84 8 25 24.1 99.04   -14 LegendNANA
12:00 Legend Double Dagger -6.0 -7.5 89 6 29 24.1 99.00   -14 Cloudy
13:00 Legend Double Dagger -6.5 -8.5 86 4 26 24.1 98.97   -14 LegendNANA
14:00 Legend Double Dagger -6.5 -8.8 84 2 30 24.1 98.90   -15 LegendNANA
15:00 Legend Double Dagger -6.3 -8.3 86 4 33 16.1 98.86   -15 Cloudy
16:00 Legend Double Dagger -6.4 -7.8 90 1 32 1.6 98.80   -15 Snow
17:00 Legend Double Dagger -6.3 -7.4 92 33 32 0.8 98.70   -15 Snow
18:00 Legend Double Dagger -5.9 -6.9 93 30 34 0.8 98.62   -15 Snow
19:00 Legend Double Dagger -5.9 -6.9 93 29 30 0.8 98.59   -14 Snow
20:00 Legend Double Dagger -5.3 -6.1 94 26 27 0.8 98.58   -13 Moderate Snow,Blowing Snow
21:00 Legend Double Dagger -5.4 -6.2 94 21 20 4.0 98.61   -12 Snow,Blowing Snow
22:00 Legend Double Dagger -5.9 -6.9 93 19 16 9.7 98.61   -12 Snow
23:00 Legend Double Dagger -6.1 -7.8 88 15 17 11.3 98.62   -12 Snow

Notes on Data Quality.

Legend

  • E = Estimated
  • M = Missing
  • NA = Not Available
  • ‡ = Partner data that is not subject to review by the National Climate Archives
Date modified: